Weather History for Menominee, MI

Change the Weather History Date:

Thursday, January 3, 2013

  Actual Average Record
Temperature  
Mean Temperature 22 °F -  
Max Temperature 28 °F 26 °F 46 °F (1998)
Min Temperature 17 °F 10 °F -15 °F (1979)
Degree Days  
Heating Degree Days 42    
Moisture  
Dew Point 15 °F    
Average Humidity 76    
Maximum Humidity 86    
Minimum Humidity 63    
Precipitation  
Precipitation 0.00 in - - ()
Sea Level Pressure  
Sea Level Pressure 30.03 in    
Wind  
Wind Speed 6 mph (West)    
Max Wind Speed 13 mph    
Max Gust Speed 23 mph    
Visibility 9 miles    
Events      
Averages and records for this station are not official NWS values.
T = Trace of Precipitation, MM = Missing Value Source: NWS Daily Summary

Daily Weather History Graph

Daily Weather History Graph

Search for Another Location

Airport:

Trip Planner

Search our weather history database for the weather conditions in past years. The results will help you decide how hot, cold, wet, or windy it might be!

Date:

Astronomy

Jan. 03, 2013 Rise Set
Actual Time 7:29 AM CST 4:21 PM CST
Civil Twilight 6:55 AM CST 4:55 PM CST
Nautical Twilight 6:18 AM CST 5:32 PM CST
Astronomical Twilight 5:42 AM CST 6:07 PM CST
Moon 11:16 PM CST (1/3) 10:22 AM CST (1/3)
Length of Visible Light 9h 59m
Length of Day
8h 52m
Waning Gibbous, 65% of the Moon is Illuminated
Jan 3
Waning Gibbous
Jan 4
Last Quarter
Jan 11
New
Jan 18
First Quarter
Jan 26
Full

Hourly Weather History & Observations

Time (CST) Temp. Windchill Dew Point Humidity Pressure Visibility Wind Dir Wind Speed Gust Speed Precip Events Conditions
12:15 AM 19.4 °F 11.5 °F 14.0 °F 80% 30.01 in 10.0 mi WNW 5.8 mph - N/A   Overcast
12:35 AM 19.4 °F - 14.0 °F 80% 30.01 in 10.0 mi Calm Calm - N/A   Overcast
12:55 AM 19.4 °F 14.3 °F 10.4 °F 68% 30.01 in 10.0 mi West 3.5 mph - N/A   Overcast
1:15 AM 19.4 °F 14.3 °F 10.4 °F 68% 30.00 in 10.0 mi WSW 3.5 mph - N/A   Overcast
1:35 AM 19.4 °F 14.3 °F 10.4 °F 68% 30.00 in 10.0 mi West 3.5 mph - N/A   Overcast
1:55 AM 17.6 °F - 12.2 °F 79% 30.00 in 10.0 mi Calm Calm - N/A   Overcast
2:15 AM 17.6 °F 12.3 °F 10.4 °F 73% 30.00 in 10.0 mi West 3.5 mph - N/A   Overcast
2:35 AM 17.6 °F 10.7 °F 10.4 °F 73% 29.99 in 10.0 mi WSW 4.6 mph - N/A   Overcast
2:55 AM 17.6 °F 12.3 °F 10.4 °F 73% 29.99 in 10.0 mi West 3.5 mph - N/A   Overcast
3:15 AM 17.6 °F 12.3 °F 10.4 °F 73% 29.98 in 10.0 mi WSW 3.5 mph - N/A   Overcast
3:35 AM 17.6 °F 10.7 °F 12.2 °F 79% 29.99 in 10.0 mi West 4.6 mph - N/A   Overcast
3:55 AM 17.6 °F 12.3 °F 12.2 °F 79% 29.99 in 10.0 mi WSW 3.5 mph - N/A   Overcast
4:15 AM 17.6 °F - 12.2 °F 79% 29.99 in 10.0 mi Calm Calm - N/A   Overcast
4:35 AM 17.6 °F 12.3 °F 10.4 °F 73% 29.99 in 10.0 mi West 3.5 mph - N/A   Overcast
4:55 AM 17.6 °F 10.7 °F 10.4 °F 73% 30.00 in 10.0 mi West 4.6 mph - N/A   Overcast
5:15 AM 17.6 °F 10.7 °F 10.4 °F 73% 30.00 in 10.0 mi West 4.6 mph - N/A   Overcast
5:35 AM 17.6 °F 10.7 °F 12.2 °F 79% 30.01 in 10.0 mi West 4.6 mph - N/A   Overcast
5:55 AM 17.6 °F 9.3 °F 14.0 °F 86% 30.01 in 10.0 mi WNW 5.8 mph - N/A   Overcast
6:15 AM 19.4 °F 12.8 °F 12.2 °F 74% 30.01 in 10.0 mi WNW 4.6 mph - N/A   Overcast
6:35 AM 19.4 °F 12.8 °F 12.2 °F 74% 30.02 in 10.0 mi WNW 4.6 mph - N/A   Overcast
6:55 AM 19.4 °F 10.4 °F 10.4 °F 68% 30.02 in 10.0 mi WNW 6.9 mph - N/A   Overcast
7:15 AM 19.4 °F 11.5 °F 12.2 °F 74% 30.03 in 10.0 mi West 5.8 mph - N/A   Overcast
7:35 AM 19.4 °F 12.8 °F 12.2 °F 74% 30.03 in 7.0 mi West 4.6 mph - N/A   Overcast
7:55 AM 19.4 °F 12.8 °F 15.8 °F 86% 30.03 in 7.0 mi West 4.6 mph - N/A   Overcast
8:15 AM 19.4 °F 12.8 °F 15.8 °F 86% 30.03 in 8.0 mi West 4.6 mph - N/A   Overcast
8:35 AM 19.4 °F 11.5 °F 15.8 °F 86% 30.04 in 7.0 mi West 5.8 mph - N/A   Overcast
8:55 AM 19.4 °F 11.5 °F 14.0 °F 80% 30.04 in 8.0 mi West 5.8 mph - N/A   Mostly Cloudy
9:35 AM 21.2 °F 13.6 °F 14.0 °F 74% 30.05 in 7.0 mi West 5.8 mph - N/A   Overcast
9:55 AM 21.2 °F 13.6 °F 15.8 °F 80% 30.06 in 7.0 mi WNW 5.8 mph - N/A   Overcast
10:15 AM 21.2 °F 12.6 °F 17.6 °F 86% 30.06 in 7.0 mi WNW 6.9 mph - N/A   Overcast
10:35 AM 23.0 °F 13.9 °F 19.4 °F 86% 30.06 in 8.0 mi West 8.1 mph - N/A   Overcast
10:55 AM 23.0 °F 12.4 °F 19.4 °F 86% 30.06 in 7.0 mi WNW 10.4 mph - N/A   Overcast
11:15 AM 24.8 °F 15.3 °F 19.4 °F 80% 30.06 in 7.0 mi West 9.2 mph - N/A   Overcast
11:35 AM 24.8 °F 15.3 °F 19.4 °F 80% 30.05 in 7.0 mi WNW 9.2 mph - N/A   Overcast
11:55 AM 24.8 °F 17.9 °F 17.6 °F 74% 30.05 in 7.0 mi WNW 5.8 mph - N/A   Overcast
12:15 PM 26.6 °F 18.2 °F 17.6 °F 69% 30.04 in 7.0 mi WNW 8.1 mph - N/A   Scattered Clouds
12:35 PM 26.6 °F 20.0 °F 17.6 °F 69% 30.04 in 8.0 mi WNW 5.8 mph - N/A   Mostly Cloudy
12:55 PM 26.6 °F 16.8 °F 19.4 °F 74% 30.03 in 10.0 mi WNW 10.4 mph 16.1 mph N/A   Overcast
1:15 PM 28.4 °F 21.2 °F 21.2 °F 74% 30.04 in 10.0 mi NW 6.9 mph - N/A   Overcast
1:35 PM 28.4 °F 19.7 °F 17.6 °F 64% 30.04 in 10.0 mi NW 9.2 mph - N/A   Overcast
1:55 PM 26.6 °F 18.2 °F 17.6 °F 69% 30.05 in 10.0 mi NW 8.1 mph - N/A   Overcast
2:15 PM 26.6 °F 16.8 °F 17.6 °F 69% 30.05 in 10.0 mi NW 10.4 mph 16.1 mph N/A   Overcast
2:35 PM 26.6 °F 16.2 °F 19.4 °F 74% 30.06 in 10.0 mi NW 11.5 mph 16.1 mph N/A   Overcast
2:55 PM 26.6 °F 20.0 °F 19.4 °F 74% 30.06 in 10.0 mi NW 5.8 mph - N/A   Overcast
3:15 PM 26.6 °F 17.5 °F 19.4 °F 74% 30.07 in 10.0 mi NW 9.2 mph - N/A   Overcast
3:35 PM 24.8 °F 15.3 °F 19.4 °F 80% 30.07 in 10.0 mi West 9.2 mph - N/A   Overcast
3:55 PM 24.8 °F 16.9 °F 17.6 °F 74% 30.07 in 10.0 mi West 6.9 mph - N/A   Overcast
4:15 PM 24.8 °F 16.9 °F 17.6 °F 74% 30.08 in 10.0 mi West 6.9 mph 18.4 mph N/A   Overcast
4:35 PM 24.8 °F 16.9 °F 17.6 °F 74% 30.07 in 10.0 mi West 6.9 mph - N/A   Overcast
4:55 PM 24.8 °F 16.9 °F 17.6 °F 74% 30.07 in 10.0 mi West 6.9 mph - N/A   Overcast
5:15 PM 24.8 °F 14.6 °F 19.4 °F 80% 30.08 in 10.0 mi West 10.4 mph - N/A   Overcast
5:35 PM 24.8 °F 16.9 °F 17.6 °F 74% 30.08 in 10.0 mi West 6.9 mph - N/A   Overcast
5:55 PM 23.0 °F 13.9 °F 12.2 °F 63% 30.08 in 10.0 mi West 8.1 mph 18.4 mph N/A   Overcast
6:15 PM 23.0 °F 14.7 °F 12.2 °F 63% 30.08 in 10.0 mi West 6.9 mph - N/A   Mostly Cloudy
6:35 PM 21.2 °F 13.6 °F 15.8 °F 80% 30.07 in 10.0 mi WSW 5.8 mph - N/A   Partly Cloudy
6:55 PM 21.2 °F 13.6 °F 14.0 °F 74% 30.07 in 10.0 mi WSW 5.8 mph - N/A   Clear
7:15 PM 21.2 °F 14.9 °F 15.8 °F 80% 30.07 in 10.0 mi West 4.6 mph - N/A   Clear
7:35 PM 21.2 °F 11.7 °F 15.8 °F 80% 30.06 in 10.0 mi WSW 8.1 mph - N/A   Clear
7:55 PM 21.2 °F 11.7 °F 15.8 °F 80% 30.06 in 10.0 mi West 8.1 mph - N/A   Clear
8:15 PM 19.4 °F 8.6 °F 15.8 °F 86% 30.05 in 10.0 mi WSW 9.2 mph - N/A   Clear
8:35 PM 19.4 °F 7.9 °F 15.8 °F 86% 30.03 in 10.0 mi WSW 10.4 mph 18.4 mph N/A   Clear
8:55 PM 19.4 °F 6.6 °F 15.8 °F 86% 30.03 in 10.0 mi WSW 12.7 mph 19.6 mph N/A   Clear
9:15 PM 19.4 °F 7.9 °F 14.0 °F 80% 30.02 in 10.0 mi WSW 10.4 mph 18.4 mph N/A   Clear
9:35 PM 19.4 °F 7.9 °F 12.2 °F 74% 30.02 in 10.0 mi WSW 10.4 mph 18.4 mph N/A   Scattered Clouds
9:55 PM 17.6 °F 5.0 °F 14.0 °F 86% 30.01 in 10.0 mi WSW 11.5 mph 23.0 mph N/A   Partly Cloudy
10:15 PM 17.6 °F 5.7 °F 12.2 °F 79% 30.01 in 10.0 mi WSW 10.4 mph 17.3 mph N/A   Clear
10:35 PM 17.6 °F 5.7 °F 12.2 °F 79% 30.00 in 10.0 mi WSW 10.4 mph 21.9 mph N/A   Clear
10:55 PM 17.6 °F 5.7 °F 10.4 °F 73% 29.98 in 10.0 mi WSW 10.4 mph 18.4 mph N/A   Clear
11:15 PM 17.6 °F 5.0 °F 10.4 °F 73% 29.97 in 10.0 mi West 11.5 mph 20.7 mph N/A   Clear
11:35 PM 17.6 °F 4.3 °F 10.4 °F 73% 29.96 in 10.0 mi WSW 12.7 mph 23.0 mph N/A   Clear
11:55 PM 17.6 °F 5.0 °F 8.6 °F 68% 29.94 in 10.0 mi WSW 11.5 mph 19.6 mph N/A   Clear